x

Kaunakakai, Molokai Airport (91186) Weather Station

11:18 - Fri 1st Jul 2016 All times are HST. -10 hours from GMT.

  • Wind
    12mph, 23mph gusts
  • Luft Temp 75°f
  • Sea Pressure 1020.7mb
  • Kaunakakai, Molokai Airport
  • Kaunakakai, Molokai Airport

More Historic Weather Station data

Upgrade to MSW Pro to gain access to the past 30 days of data for over 8000 Wavebouys and Weather Stations around the globe.

Join Pro

Comparision Forecast

View Surf forecast
   
Fr 07/01 11:18 12 23 mph 1020.7mb 75f
10:54 14 22 mph 1020.7mb 75f
9:54 16 23 mph 1020.7mb 77f
8:54 15 23 mph 1020mb 75f
8:34 16 24 mph 1020mb 77f
7:54 14 25 mph 1019.6mb 75f
6:54 12 25 mph 1019mb 77f
6:28 14 24 mph 1019mb 79f
5:54 12 23 mph 1018.6mb 79f
4:54 21 33 mph 1018mb 81f
3:54 17 31 mph 1018mb 81f
2:54 23 32 mph 1018mb 82f
1:54 18 33 mph 1018.3mb 81f
12:54 25 37 mph 1018mb 82f
11:54 16 38 mph 1019mb 82f
10:54 20 32 mph 1019mb 82f
9:54 23 35 mph 1019mb 82f
8:54 23 31 mph 1018.6mb 81f
7:54 18 30 mph 1018.3mb 79f
6:54 17 33 mph 1018.3mb 75f
5:54 16 28 mph 1017.6mb 75f
4:54 16 23 mph 1017.3mb 75f
3:54 14 24 mph 1017.3mb 75f
2:54 14 24 mph 1017.6mb 75f
1:54 13 23 mph 1018.3mb 75f
12:54 13
mph
1018.6mb 75f
Do 06/30 11:54 9
mph
1019mb 75f
10:54 10 23 mph 1019.3mb 75f
9:54 13 28 mph 1019.3mb 75f
8:54 17 25 mph 1019mb 75f
7:54 15 29 mph 1018.6mb 77f
6:54 21 35 mph 1018mb 79f
5:54 17 30 mph 1017.3mb 79f
4:54 21 32 mph 1017.3mb 81f
3:54 22 35 mph 1017.3mb 82f
2:54 18 39 mph 1017.3mb 82f
1:54 21 35 mph 1018mb 84f
12:54 20 33 mph 1018.3mb 84f
11:54 21 33 mph 1019mb 82f
10:54 20 31 mph 1019mb 82f
9:54 18 32 mph 1018.6mb 81f
8:54 14 24 mph 1019mb 81f
6:54 16 22 mph 1018.6mb 75f
5:54 13 20 mph 1018mb 75f
4:54 12 21 mph 1017.6mb 75f
3:54 10 22 mph 1016.9mb 75f
2:54 9 22 mph 1016.9mb 75f
1:54 12 20 mph 1017.6mb 75f
12:54 12 21 mph 1018mb 75f
Mi 06/29 11:54 9
mph
1018.6mb 75f
10:54 13 18 mph 1019mb 75f
9:54 14 22 mph 1019mb 75f
8:54 10 18 mph 1018.6mb 79f
7:54 9 18 mph 1018mb 77f
6:54 13 20 mph 1017.3mb 79f
5:54 12 18 mph 1016.6mb 81f
4:54 14 21 mph 1016.9mb 82f
3:54 9 16 mph 1016.6mb 82f
2:54 15 22 mph 1016.9mb 82f
1:54 18 24 mph 1017.3mb 84f
12:54 17 27 mph 1017.6mb 84f
11:54 13 23 mph 1018mb 84f
10:54 12 21 mph 1018.6mb 82f
9:54 14 23 mph 1018.3mb 81f
8:54 12 18 mph 1018.3mb 81f
7:54 13 21 mph 1018mb 79f
6:54 10 17 mph 1017.6mb 75f
5:54 6
mph
1017.3mb 73f
4:54 6
mph
1016.9mb 73f
3:54 5
mph
1016.9mb 73f
2:54 5
mph
1016.6mb 75f
1:54 6
mph
1016.9mb 75f
12:54 7
mph
1017.6mb 75f
Di 06/28 11:54 7
mph
1018mb 75f
10:54 9 18 mph 1018.3mb 75f
9:54 10 17 mph 1018.3mb 75f
8:54 14 21 mph 1017.6mb 75f
7:54 10 16 mph 1016.9mb 75f
6:54 13 17 mph 1016.6mb 77f
5:54 10 21 mph 1015.9mb 81f
4:54 16 24 mph 1015.2mb 81f
3:54 20 27 mph 1015.6mb 82f
2:54 17 29 mph 1015.9mb 84f
1:54 17 30 mph 1016.3mb 86f
12:54 21 27 mph 1016.9mb 86f
11:54 15 25 mph 1017.3mb 84f
10:54 15 25 mph 1017.6mb 82f
9:54 17 24 mph 1017.6mb 81f